Time,TemperatureF,DewpointF,PressureIn,WindDirection,WindDirectionDegrees,WindSpeedMPH,WindSpeedGustMPH,Humidity,HourlyPrecipIn,Conditions,Clouds,dailyrainin,SolarRadiationWatts/m^2,SoftwareType,DateUTC
2013-04-29 00:00:00,52.8,50.5,29.72,North,360,0.0,0.0,92,0.00,,---,0.00,0.00,VWS V14.00,2013-04-29 05:00:00,
2013-04-29 00:05:00,52.6,50.3,29.71,North,360,0.0,0.0,92,0.00,,---,0.00,0.00,VWS V14.00,2013-04-29 05:05:00,
2013-04-29 00:10:00,52.3,50.0,29.72,North,360,0.0,0.0,92,0.00,,---,0.00,0.00,VWS V14.00,2013-04-29 05:10:00,
2013-04-29 00:15:00,52.0,49.8,29.72,North,360,0.0,0.0,92,0.00,,---,0.00,0.00,VWS V14.00,2013-04-29 05:15:00,
2013-04-29 00:20:00,51.7,49.5,29.72,North,360,0.0,0.0,92,0.00,,---,0.00,0.00,VWS V14.00,2013-04-29 05:20:00,
2013-04-29 00:25:00,51.5,49.3,29.73,North,360,0.0,0.0,92,0.00,,---,0.00,0.00,VWS V14.00,2013-04-29 05:25:00,
2013-04-29 00:30:00,52.1,50.4,29.74,NW,313,4.0,9.0,94,0.00,,---,0.00,0.00,VWS V14.00,2013-04-29 05:30:00,
2013-04-29 00:35:00,52.7,51.0,29.74,NW,314,3.0,9.0,94,0.00,,---,0.00,0.00,VWS V14.00,2013-04-29 05:35:00,
2013-04-29 00:40:00,53.1,50.8,29.74,NNW,329,0.0,9.0,92,0.00,,---,0.00,0.00,VWS V14.00,2013-04-29 05:40:00,
2013-04-29 00:45:00,53.2,50.7,29.74,NNW,329,0.0,9.0,91,0.00,,---,0.00,0.00,VWS V14.00,2013-04-29 05:45:00,
2013-04-29 00:51:00,53.1,50.5,29.74,NW,326,0.0,9.0,91,0.00,,---,0.00,0.00,VWS V14.00,2013-04-29 05:51:00,
2013-04-29 00:56:00,53.0,50.5,29.74,NW,326,0.0,9.0,91,0.00,,---,0.00,0.00,VWS V14.00,2013-04-29 05:56:00,
2013-04-29 01:00:00,52.9,50.6,29.71,North,360,0.0,0.0,92,0.00,,---,0.00,0.00,VWS V14.00,2013-04-29 06:00:00,
2013-04-29 01:01:00,52.9,50.3,29.74,NW,326,0.0,0.0,91,0.00,,---,0.00,0.00,VWS V14.00,2013-04-29 06:01:00,
2013-04-29 01:06:00,52.7,50.2,29.74,NW,326,0.0,0.0,91,0.00,,---,0.00,0.00,VWS V14.00,2013-04-29 06:06:00,
2013-04-29 01:11:00,52.7,50.5,29.74,NW,326,0.0,0.0,92,0.00,,---,0.00,0.00,VWS V14.00,2013-04-29 06:11:00,
2013-04-29 01:16:00,52.5,50.0,29.74,NW,326,0.0,0.0,91,0.00,,---,0.00,0.00,VWS V14.00,2013-04-29 06:16:00,
2013-04-29 01:21:00,52.3,49.8,29.74,NW,326,0.0,0.0,91,0.00,,---,0.00,0.00,VWS V14.00,2013-04-29 06:21:00,
2013-04-29 01:26:00,52.0,49.5,29.74,NW,326,0.0,0.0,91,0.00,,---,0.00,0.00,VWS V14.00,2013-04-29 06:26:00,
2013-04-29 01:30:00,51.4,49.5,29.74,NW,307,4.0,10.0,93,0.00,,---,0.00,0.00,VWS V14.00,2013-04-29 06:30:00,
2013-04-29 01:31:00,51.8,49.3,29.75,NW,326,0.0,0.0,91,0.00,,---,0.00,0.00,VWS V14.00,2013-04-29 06:31:00,
2013-04-29 01:36:00,51.5,49.0,29.75,NW,326,0.0,0.0,91,0.00,,---,0.00,0.00,VWS V14.00,2013-04-29 06:36:00,
2013-04-29 01:41:00,51.2,48.7,29.76,NW,326,0.0,0.0,91,0.00,,---,0.00,0.00,VWS V14.00,2013-04-29 06:41:00,
2013-04-29 01:46:00,50.8,48.6,29.76,NW,326,0.0,1.0,92,0.00,,---,0.00,0.00,VWS V14.00,2013-04-29 06:46:00,
2013-04-29 01:52:00,50.5,48.3,29.76,NW,313,4.0,5.0,92,0.00,,---,0.00,0.00,VWS V14.00,2013-04-29 06:52:00,
2013-04-29 01:57:00,50.5,48.6,29.75,NW,313,0.0,5.0,93,0.00,,---,0.00,0.00,VWS V14.00,2013-04-29 06:57:00,
2013-04-29 02:00:00,53.0,50.5,29.74,NW,326,0.0,9.0,91,0.00,,---,0.00,0.00,VWS V14.00,2013-04-29 07:00:00,
2013-04-29 02:02:00,50.5,48.6,29.75,NW,313,2.0,2.0,93,0.00,,---,0.00,0.00,VWS V14.00,2013-04-29 07:02:00,
2013-04-29 02:07:00,50.5,48.6,29.75,NW,312,2.0,4.0,93,0.00,,---,0.00,0.00,VWS V14.00,2013-04-29 07:07:00,
2013-04-29 02:12:00,50.7,48.5,29.75,NW,323,1.0,4.0,92,0.00,,---,0.00,0.00,VWS V14.00,2013-04-29 07:12:00,
2013-04-29 02:17:00,51.2,48.4,29.75,NW,324,1.0,4.0,90,0.00,,---,0.00,0.00,VWS V14.00,2013-04-29 07:17:00,
2013-04-29 02:22:00,51.4,48.3,29.75,NW,324,1.0,4.0,89,0.00,,---,0.00,0.00,VWS V14.00,2013-04-29 07:22:00,
2013-04-29 02:27:00,51.5,48.4,29.75,NW,324,1.0,4.0,89,0.00,,---,0.00,0.00,VWS V14.00,2013-04-29 07:27:00,
2013-04-29 02:30:00,52.0,49.5,29.74,NW,326,0.0,0.0,91,0.00,,---,0.00,0.00,VWS V14.00,2013-04-29 07:30:00,
2013-04-29 02:32:00,51.5,48.1,29.75,NW,324,0.0,3.0,88,0.00,,---,0.00,0.00,VWS V14.00,2013-04-29 07:32:00,
2013-04-29 02:37:00,51.4,48.0,29.75,NW,324,1.0,3.0,88,0.00,,---,0.00,0.00,VWS V14.00,2013-04-29 07:37:00,
2013-04-29 02:43:00,51.3,47.6,29.75,NW,326,0.0,4.0,87,0.00,,---,0.00,0.00,VWS V14.00,2013-04-29 07:43:00,
2013-04-29 02:48:00,51.2,47.5,29.76,NW,326,0.0,4.0,87,0.00,,---,0.00,0.00,VWS V14.00,2013-04-29 07:48:00,
2013-04-29 02:53:00,51.0,47.6,29.75,NW,326,3.0,4.0,88,0.00,,---,0.00,0.00,VWS V14.00,2013-04-29 07:53:00,
2013-04-29 02:58:00,50.9,47.5,29.75,NNW,335,2.0,3.0,88,0.00,,---,0.00,0.00,VWS V14.00,2013-04-29 07:58:00,
2013-04-29 03:00:00,50.5,48.6,29.75,NW,313,0.0,5.0,93,0.00,,---,0.00,0.00,VWS V14.00,2013-04-29 08:00:00,
2013-04-29 03:03:00,50.9,47.5,29.76,NNW,340,0.0,4.0,88,0.00,,---,0.00,0.00,VWS V14.00,2013-04-29 08:03:00,
2013-04-29 03:08:00,50.8,47.4,29.76,NNW,332,0.0,4.0,88,0.00,,---,0.00,0.00,VWS V14.00,2013-04-29 08:08:00,
2013-04-29 03:13:00,50.7,47.0,29.75,NNW,333,1.0,4.0,87,0.00,,---,0.00,0.00,VWS V14.00,2013-04-29 08:13:00,
2013-04-29 03:18:00,50.6,46.9,29.76,NNW,333,1.0,4.0,87,0.00,,---,0.00,0.00,VWS V14.00,2013-04-29 08:18:00,
2013-04-29 03:23:00,50.5,46.8,29.76,NNW,333,0.0,4.0,87,0.00,,---,0.00,0.00,VWS V14.00,2013-04-29 08:23:00,
2013-04-29 03:28:00,50.3,46.6,29.76,NNW,333,1.0,2.0,87,0.00,,---,0.00,0.00,VWS V14.00,2013-04-29 08:28:00,
2013-04-29 03:30:00,51.5,48.4,29.75,NW,324,1.0,4.0,89,0.00,,---,0.00,0.00,VWS V14.00,2013-04-29 08:30:00,
2013-04-29 03:34:00,50.1,46.4,29.76,NNW,333,0.0,2.0,87,0.00,,---,0.00,0.00,VWS V14.00,2013-04-29 08:34:00,
2013-04-29 03:39:00,50.0,46.3,29.76,NNW,333,1.0,2.0,87,0.00,,---,0.00,0.00,VWS V14.00,2013-04-29 08:39:00,
2013-04-29 03:44:00,49.9,46.2,29.76,NNW,333,1.0,2.0,87,0.00,,---,0.00,0.00,VWS V14.00,2013-04-29 08:44:00,
2013-04-29 03:49:00,49.7,46.0,29.77,NNW,333,0.0,2.0,87,0.00,,---,0.00,0.00,VWS V14.00,2013-04-29 08:49:00,
2013-04-29 03:54:00,49.5,45.8,29.77,NNW,333,0.0,2.0,87,0.00,,---,0.00,0.00,VWS V14.00,2013-04-29 08:54:00,
2013-04-29 03:59:00,49.2,45.8,29.77,NNW,333,0.0,1.0,88,0.00,,---,0.00,0.00,VWS V14.00,2013-04-29 08:59:00,
2013-04-29 04:00:00,50.9,47.5,29.75,NNW,335,0.0,4.0,88,0.00,,---,0.00,0.00,VWS V14.00,2013-04-29 09:00:00,
2013-04-29 04:04:00,49.0,45.6,29.77,NNW,333,0.0,1.0,88,0.00,,---,0.00,0.00,VWS V14.00,2013-04-29 09:04:00,
2013-04-29 04:09:00,48.7,45.3,29.77,NNW,333,0.0,1.0,88,0.00,,---,0.00,0.00,VWS V14.00,2013-04-29 09:09:00,
2013-04-29 04:14:00,48.3,45.2,29.77,NNW,333,0.0,1.0,89,0.00,,---,0.00,0.00,VWS V14.00,2013-04-29 09:14:00,
2013-04-29 04:19:00,48.0,44.9,29.77,NNW,333,0.0,1.0,89,0.00,,---,0.00,0.00,VWS V14.00,2013-04-29 09:19:00,
2013-04-29 04:25:00,47.8,44.7,29.77,NNW,333,0.0,1.0,89,0.00,,---,0.00,0.00,VWS V14.00,2013-04-29 09:25:00,
2013-04-29 04:30:00,47.6,44.5,29.77,NNW,333,0.0,0.0,89,0.00,,---,0.00,0.00,VWS V14.00,2013-04-29 09:30:00,
2013-04-29 04:35:00,47.3,44.2,29.77,NNW,333,0.0,1.0,89,0.00,,---,0.00,0.00,VWS V14.00,2013-04-29 09:35:00,
2013-04-29 04:40:00,47.0,44.2,29.77,NNW,333,0.0,1.0,90,0.00,,---,0.00,0.00,VWS V14.00,2013-04-29 09:40:00,
2013-04-29 04:45:00,46.6,43.8,29.78,NNW,333,0.0,2.0,90,0.00,,---,0.00,0.00,VWS V14.00,2013-04-29 09:45:00,
2013-04-29 04:50:00,46.2,43.7,29.78,NNW,333,2.0,3.0,91,0.00,,---,0.00,0.00,VWS V14.00,2013-04-29 09:50:00,
2013-04-29 04:55:00,46.1,43.9,29.78,NNW,332,2.0,3.0,92,0.00,,---,0.00,0.00,VWS V14.00,2013-04-29 09:55:00,
2013-04-29 05:00:00,46.6,44.4,29.78,NNW,329,2.0,4.0,92,0.00,,---,0.00,0.00,VWS V14.00,2013-04-29 10:00:00,
2013-04-29 05:05:00,47.2,44.7,29.78,NNW,342,2.0,4.0,91,0.00,,---,0.00,0.00,VWS V14.00,2013-04-29 10:05:00,
2013-04-29 05:10:00,47.7,44.6,29.78,NNW,342,3.0,4.0,89,0.00,,---,0.00,0.00,VWS V14.00,2013-04-29 10:10:00,
2013-04-29 05:15:00,48.1,44.7,29.78,NNW,334,4.0,4.0,88,0.00,,---,0.00,0.00,VWS V14.00,2013-04-29 10:15:00,
2013-04-29 05:21:00,48.5,44.5,29.78,NW,325,4.0,6.0,86,0.00,,---,0.00,0.00,VWS V14.00,2013-04-29 10:21:00,
2013-04-29 05:26:00,48.9,44.6,29.78,NNW,333,2.0,6.0,85,0.00,,---,0.00,0.00,VWS V14.00,2013-04-29 10:26:00,
2013-04-29 05:30:00,47.6,44.5,29.77,NNW,333,0.0,1.0,89,0.00,,---,0.00,0.00,VWS V14.00,2013-04-29 10:30:00,
2013-04-29 05:31:00,49.1,44.5,29.78,NNE,15,2.0,6.0,84,0.00,,---,0.00,0.00,VWS V14.00,2013-04-29 10:31:00,
2013-04-29 05:36:00,49.0,44.4,29.78,NNW,337,1.0,6.0,84,0.00,,---,0.00,0.00,VWS V14.00,2013-04-29 10:36:00,
2013-04-29 05:41:00,48.8,44.2,29.78,NW,323,3.0,7.0,84,0.00,,---,0.00,0.00,VWS V14.00,2013-04-29 10:41:00,
2013-04-29 05:46:00,48.6,44.0,29.78,NNW,333,2.0,7.0,84,0.00,,---,0.00,0.00,VWS V14.00,2013-04-29 10:46:00,
2013-04-29 05:51:00,48.4,44.1,29.78,North,351,4.0,7.0,85,0.00,,---,0.00,0.00,VWS V14.00,2013-04-29 10:51:00,
2013-04-29 05:56:00,48.2,43.9,29.78,NNW,340,2.0,7.0,85,0.00,,---,0.00,0.00,VWS V14.00,2013-04-29 10:56:00,
2013-04-29 06:00:00,46.3,44.1,29.78,NNW,332,3.0,3.0,92,0.00,,---,0.00,0.00,VWS V14.00,2013-04-29 11:00:00,
2013-04-29 06:01:00,48.1,43.8,29.78,NNW,333,2.0,6.0,85,0.00,,---,0.00,0.00,VWS V14.00,2013-04-29 11:01:00,
2013-04-29 06:06:00,47.9,43.6,29.78,NNW,334,2.0,6.0,85,0.00,,---,0.00,0.00,VWS V14.00,2013-04-29 11:06:00,
2013-04-29 06:12:00,47.8,43.5,29.78,NNW,345,4.0,9.0,85,0.00,,---,0.00,5.00,VWS V14.00,2013-04-29 11:12:00,
2013-04-29 06:17:00,47.6,43.3,29.78,NNW,339,2.0,9.0,85,0.00,,---,0.00,7.00,VWS V14.00,2013-04-29 11:17:00,
2013-04-29 06:22:00,47.4,43.4,29.78,NNW,345,3.0,9.0,86,0.00,,---,0.00,9.00,VWS V14.00,2013-04-29 11:22:00,
2013-04-29 06:27:00,47.3,43.3,29.78,NNW,344,4.0,9.0,86,0.00,,---,0.00,12.00,VWS V14.00,2013-04-29 11:27:00,
2013-04-29 06:30:00,49.0,44.7,29.78,NNW,340,3.0,6.0,85,0.00,,---,0.00,0.00,VWS V14.00,2013-04-29 11:30:00,
2013-04-29 06:32:00,47.3,43.3,29.79,NNW,333,2.0,6.0,86,0.00,,---,0.00,14.00,VWS V14.00,2013-04-29 11:32:00,
2013-04-29 06:37:00,47.4,43.1,29.78,NNW,336,4.0,7.0,85,0.00,,---,0.00,18.00,VWS V14.00,2013-04-29 11:37:00,
2013-04-29 06:42:00,47.5,43.2,29.78,NNW,348,4.0,7.0,85,0.00,,---,0.00,19.00,VWS V14.00,2013-04-29 11:42:00,
2013-04-29 06:47:00,47.5,42.9,29.79,NW,324,5.0,7.0,84,0.00,,---,0.00,23.00,VWS V14.00,2013-04-29 11:47:00,
2013-04-29 06:52:00,47.6,42.7,29.79,NNW,347,3.0,7.0,83,0.00,,---,0.00,28.00,VWS V14.00,2013-04-29 11:52:00,
2013-04-29 06:57:00,47.5,42.6,29.78,NNW,336,5.0,9.0,83,0.00,,---,0.00,32.00,VWS V14.00,2013-04-29 11:57:00,
2013-04-29 07:00:00,48.2,43.9,29.78,NNW,341,4.0,7.0,85,0.00,,---,0.00,0.00,VWS V14.00,2013-04-29 12:00:00,
2013-04-29 07:02:00,47.6,42.7,29.79,NW,304,6.0,8.0,83,0.00,,---,0.00,39.00,VWS V14.00,2013-04-29 12:02:00,
2013-04-29 07:07:00,47.7,42.8,29.79,NNW,340,4.0,9.0,83,0.00,,---,0.00,35.00,VWS V14.00,2013-04-29 12:07:00,
2013-04-29 07:12:00,47.7,42.5,29.78,NNE,17,7.0,12.0,82,0.00,,---,0.00,33.00,VWS V14.00,2013-04-29 12:12:00,
2013-04-29 07:17:00,47.8,41.9,29.78,North,355,7.0,12.0,80,0.00,,---,0.00,35.00,VWS V14.00,2013-04-29 12:17:00,
2013-04-29 07:22:00,47.9,42.0,29.78,NNE,15,2.0,12.0,80,0.00,,---,0.00,40.00,VWS V14.00,2013-04-29 12:22:00,
2013-04-29 07:28:00,48.0,41.5,29.78,NNW,346,4.0,10.0,78,0.00,,---,0.00,40.00,VWS V14.00,2013-04-29 12:28:00,
2013-04-29 07:30:00,47.3,43.3,29.78,NNW,344,3.0,9.0,86,0.00,,---,0.00,12.00,VWS V14.00,2013-04-29 12:30:00,
2013-04-29 07:33:00,48.2,41.7,29.79,North,350,9.0,10.0,78,0.00,,---,0.00,42.00,VWS V14.00,2013-04-29 12:33:00,
2013-04-29 07:38:00,48.4,41.5,29.79,NNW,333,6.0,11.0,77,0.00,,---,0.00,44.00,VWS V14.00,2013-04-29 12:38:00,
2013-04-29 07:43:00,48.6,41.4,29.79,NNW,336,5.0,11.0,76,0.00,,---,0.00,46.00,VWS V14.00,2013-04-29 12:43:00,
2013-04-29 07:48:00,48.8,40.9,29.79,NW,312,2.0,11.0,74,0.00,,---,0.00,49.00,VWS V14.00,2013-04-29 12:48:00,
2013-04-29 07:53:00,49.0,40.7,29.79,North,360,2.0,11.0,73,0.00,,---,0.00,49.00,VWS V14.00,2013-04-29 12:53:00,
2013-04-29 07:58:00,49.1,40.8,29.79,WNW,302,3.0,5.0,73,0.00,,---,0.00,49.00,VWS V14.00,2013-04-29 12:58:00,
2013-04-29 08:00:00,47.5,42.6,29.78,NNW,336,5.0,9.0,83,0.00,,---,0.00,32.00,VWS V14.00,2013-04-29 13:00:00,
2013-04-29 08:03:00,49.4,40.8,29.79,North,360,2.0,6.0,72,0.00,,---,0.00,51.00,VWS V14.00,2013-04-29 13:03:00,
2013-04-29 08:08:00,49.5,40.9,29.79,North,5,5.0,7.0,72,0.00,,---,0.00,49.00,VWS V14.00,2013-04-29 13:08:00,
2013-04-29 08:13:00,49.8,41.5,29.79,NNW,346,2.0,7.0,73,0.00,,---,0.00,53.00,VWS V14.00,2013-04-29 13:13:00,
2013-04-29 08:18:00,50.1,41.4,29.79,NNE,26,0.0,7.0,72,0.00,,---,0.00,54.00,VWS V14.00,2013-04-29 13:18:00,
2013-04-29 08:23:00,50.3,41.3,29.79,NNW,330,3.0,7.0,71,0.00,,---,0.00,56.00,VWS V14.00,2013-04-29 13:23:00,
2013-04-29 08:28:00,50.6,40.1,29.79,NNE,17,3.0,4.0,67,0.00,,---,0.00,62.00,VWS V14.00,2013-04-29 13:28:00,
2013-04-29 08:30:00,48.0,41.5,29.78,North,349,10.0,12.0,78,0.00,,---,0.00,40.00,VWS V14.00,2013-04-29 13:30:00,
2013-04-29 08:34:00,51.0,39.7,29.78,NNE,20,4.0,9.0,65,0.00,,---,0.00,60.00,VWS V14.00,2013-04-29 13:34:00,
2013-04-29 08:39:00,51.4,40.4,29.78,NNE,24,3.0,9.0,66,0.00,,---,0.00,76.00,VWS V14.00,2013-04-29 13:39:00,
2013-04-29 08:44:00,51.7,38.7,29.78,NE,36,0.0,10.0,61,0.00,,---,0.00,121.00,VWS V14.00,2013-04-29 13:44:00,
2013-04-29 08:49:00,51.9,39.3,29.78,NE,49,3.0,10.0,62,0.00,,---,0.00,118.00,VWS V14.00,2013-04-29 13:49:00,
2013-04-29 08:54:00,52.1,37.8,29.78,NNE,23,6.0,10.0,58,0.00,,---,0.00,383.00,VWS V14.00,2013-04-29 13:54:00,
2013-04-29 08:59:00,52.3,38.8,29.78,NNE,31,3.0,9.0,60,0.00,,---,0.00,410.00,VWS V14.00,2013-04-29 13:59:00,
2013-04-29 09:00:00,49.1,40.8,29.79,NNW,331,3.0,11.0,73,0.00,,---,0.00,49.00,VWS V14.00,2013-04-29 14:00:00,
2013-04-29 09:04:00,52.7,39.6,29.78,NNE,13,4.0,9.0,61,0.00,,---,0.00,376.00,VWS V14.00,2013-04-29 14:04:00,
2013-04-29 09:09:00,53.2,39.3,29.77,NNE,12,3.0,9.0,59,0.00,,---,0.00,371.00,VWS V14.00,2013-04-29 14:09:00,
2013-04-29 09:14:00,53.5,39.1,29.78,NE,34,2.0,9.0,58,0.00,,---,0.00,417.00,VWS V14.00,2013-04-29 14:14:00,
2013-04-29 09:20:00,53.6,39.2,29.78,North,350,3.0,9.0,58,0.00,,---,0.00,362.00,VWS V14.00,2013-04-29 14:20:00,
2013-04-29 09:25:00,53.6,39.6,29.77,ENE,57,4.0,9.0,59,0.00,,---,0.00,554.00,VWS V14.00,2013-04-29 14:25:00,
2013-04-29 09:30:00,54.0,38.7,29.77,North,351,6.0,9.0,56,0.00,,---,0.00,571.00,VWS V14.00,2013-04-29 14:30:00,
2013-04-29 09:35:00,54.4,38.1,29.77,NE,55,2.0,10.0,54,0.00,,---,0.00,591.00,VWS V14.00,2013-04-29 14:35:00,
2013-04-29 09:40:00,54.8,39.4,29.77,NNE,15,1.0,10.0,56,0.00,,---,0.00,606.00,VWS V14.00,2013-04-29 14:40:00,
2013-04-29 09:45:00,55.2,38.4,29.77,NNE,23,1.0,10.0,53,0.00,,---,0.00,624.00,VWS V14.00,2013-04-29 14:45:00,
2013-04-29 09:50:00,55.6,40.2,29.76,NNE,28,1.0,10.0,56,0.00,,---,0.00,640.00,VWS V14.00,2013-04-29 14:50:00,
2013-04-29 09:55:00,56.1,38.2,29.76,NNE,31,2.0,10.0,51,0.00,,---,0.00,656.00,VWS V14.00,2013-04-29 14:55:00,
2013-04-29 10:00:00,56.5,39.1,29.76,NNE,32,0.0,7.0,52,0.00,,---,0.00,668.00,VWS V14.00,2013-04-29 15:00:00,
2013-04-29 10:05:00,56.9,38.5,29.76,ENE,57,2.0,7.0,50,0.00,,---,0.00,684.00,VWS V14.00,2013-04-29 15:05:00,
2013-04-29 10:10:00,57.5,40.0,29.76,NNE,22,3.0,7.0,52,0.00,,---,0.00,698.00,VWS V14.00,2013-04-29 15:10:00,
2013-04-29 10:15:00,57.6,38.6,29.76,ESE,121,1.0,9.0,49,0.00,,---,0.00,712.00,VWS V14.00,2013-04-29 15:15:00,
2013-04-29 10:21:00,57.6,39.6,29.75,NNE,28,0.0,9.0,51,0.00,,---,0.00,724.00,VWS V14.00,2013-04-29 15:21:00,
2013-04-29 10:26:00,57.9,38.3,29.75,NE,42,0.0,9.0,48,0.00,,---,0.00,738.00,VWS V14.00,2013-04-29 15:26:00,
2013-04-29 10:30:00,53.8,39.4,29.77,NNE,12,3.0,9.0,58,0.00,,---,0.00,564.00,VWS V14.00,2013-04-29 15:30:00,
2013-04-29 10:31:00,58.5,39.4,29.75,North,9,0.0,5.0,49,0.00,,---,0.00,751.00,VWS V14.00,2013-04-29 15:31:00,
2013-04-29 10:36:00,59.0,39.9,29.75,NE,40,4.0,5.0,49,0.00,,---,0.00,761.00,VWS V14.00,2013-04-29 15:36:00,
2013-04-29 10:41:00,59.3,40.2,29.75,NE,38,2.0,5.0,49,0.00,,---,0.00,772.00,VWS V14.00,2013-04-29 15:41:00,
2013-04-29 10:46:00,59.6,40.4,29.75,NNE,15,0.0,7.0,49,0.00,,---,0.00,786.00,VWS V14.00,2013-04-29 15:46:00,
2013-04-29 10:51:00,60.2,41.0,29.75,NNE,23,0.0,7.0,49,0.00,,---,0.00,795.00,VWS V14.00,2013-04-29 15:51:00,
2013-04-29 10:57:00,60.7,40.4,29.75,East,93,0.0,7.0,47,0.00,,---,0.00,812.00,VWS V14.00,2013-04-29 15:57:00,
2013-04-29 11:00:00,56.3,38.9,29.76,NE,37,0.0,10.0,52,0.00,,---,0.00,663.00,VWS V14.00,2013-04-29 16:00:00,
2013-04-29 11:02:00,60.9,40.0,29.74,East,92,1.0,2.0,46,0.00,,---,0.00,821.00,VWS V14.00,2013-04-29 16:02:00,
2013-04-29 11:07:00,61.4,41.0,29.74,NNE,28,1.0,5.0,47,0.00,,---,0.00,831.00,VWS V14.00,2013-04-29 16:07:00,
2013-04-29 11:12:00,61.7,40.7,29.74,NE,34,1.0,5.0,46,0.00,,---,0.00,844.00,VWS V14.00,2013-04-29 16:12:00,
2013-04-29 11:17:00,62.2,42.3,29.74,NE,36,3.0,5.0,48,0.00,,---,0.00,853.00,VWS V14.00,2013-04-29 16:17:00,
2013-04-29 11:22:00,62.6,41.5,29.74,NNE,32,0.0,5.0,46,0.00,,---,0.00,865.00,VWS V14.00,2013-04-29 16:22:00,
2013-04-29 11:27:00,62.5,41.5,29.74,NW,310,3.0,3.0,46,0.00,,---,0.00,874.00,VWS V14.00,2013-04-29 16:27:00,
2013-04-29 11:30:00,58.0,39.0,29.75,NE,40,2.0,9.0,49,0.00,,---,0.00,740.00,VWS V14.00,2013-04-29 16:30:00,
2013-04-29 11:32:00,62.8,42.3,29.73,NW,323,0.0,5.0,47,0.00,,---,0.00,882.00,VWS V14.00,2013-04-29 16:32:00,
2013-04-29 11:37:00,63.8,43.2,29.73,South,185,1.0,5.0,47,0.00,,---,0.00,889.00,VWS V14.00,2013-04-29 16:37:00,
2013-04-29 11:43:00,64.3,41.9,29.73,North,5,1.0,5.0,44,0.00,,---,0.00,898.00,VWS V14.00,2013-04-29 16:43:00,
2013-04-29 11:48:00,64.5,42.1,29.73,South,186,0.0,5.0,44,0.00,,---,0.00,909.00,VWS V14.00,2013-04-29 16:48:00,
2013-04-29 11:53:00,64.5,43.3,29.73,NNE,16,2.0,5.0,46,0.00,,---,0.00,912.00,VWS V14.00,2013-04-29 16:53:00,
2013-04-29 11:58:00,64.8,45.2,29.73,SSE,156,0.0,1.0,49,0.00,,---,0.00,923.00,VWS V14.00,2013-04-29 16:58:00,
2013-04-29 12:00:00,60.7,40.4,29.75,East,93,0.0,7.0,47,0.00,,---,0.00,810.00,VWS V14.00,2013-04-29 17:00:00,
2013-04-29 12:03:00,65.4,42.9,29.73,ESE,115,1.0,3.0,44,0.00,,---,0.00,926.00,VWS V14.00,2013-04-29 17:03:00,
2013-04-29 12:08:00,65.8,43.3,29.73,ENE,78,2.0,4.0,44,0.00,,---,0.00,933.00,VWS V14.00,2013-04-29 17:08:00,
2013-04-29 12:13:00,66.2,43.7,29.72,SSE,167,2.0,4.0,44,0.00,,---,0.00,937.00,VWS V14.00,2013-04-29 17:13:00,
2013-04-29 12:18:00,66.7,44.7,29.72,South,186,0.0,4.0,45,0.00,,---,0.00,942.00,VWS V14.00,2013-04-29 17:18:00,
2013-04-29 12:23:00,67.2,43.4,29.72,SE,137,0.0,4.0,42,0.00,,---,0.00,949.00,VWS V14.00,2013-04-29 17:23:00,
2013-04-29 12:28:00,67.4,43.5,29.71,East,92,0.0,2.0,42,0.00,,---,0.00,958.00,VWS V14.00,2013-04-29 17:28:00,
2013-04-29 12:30:00,62.5,41.5,29.73,NW,310,2.0,5.0,46,0.00,,---,0.00,874.00,VWS V14.00,2013-04-29 17:30:00,
2013-04-29 12:33:00,67.3,44.7,29.71,North,360,3.0,4.0,44,0.00,,---,0.00,958.00,VWS V14.00,2013-04-29 17:33:00,
2013-04-29 12:39:00,67.6,44.3,29.71,SSE,148,2.0,5.0,43,0.00,,---,0.00,958.00,VWS V14.00,2013-04-29 17:39:00,
2013-04-29 12:44:00,67.6,44.9,29.71,North,360,2.0,5.0,44,0.00,,---,0.00,958.00,VWS V14.00,2013-04-29 17:44:00,
2013-04-29 12:49:00,67.6,46.7,29.71,North,355,2.0,5.0,47,0.00,,---,0.00,963.00,VWS V14.00,2013-04-29 17:49:00,
2013-04-29 12:54:00,68.2,44.9,29.70,NNE,28,5.0,8.0,43,0.00,,---,0.00,963.00,VWS V14.00,2013-04-29 17:54:00,
2013-04-29 12:59:00,68.2,44.3,29.71,SE,127,1.0,2.0,42,0.00,,---,0.00,967.00,VWS V14.00,2013-04-29 17:59:00,
2013-04-29 13:00:00,64.7,43.5,29.73,SSE,156,0.0,5.0,46,0.00,,---,0.00,919.00,VWS V14.00,2013-04-29 18:00:00,
2013-04-29 13:04:00,68.6,44.6,29.70,South,169,2.0,3.0,42,0.00,,---,0.00,972.00,VWS V14.00,2013-04-29 18:04:00,
2013-04-29 13:09:00,69.2,43.9,29.70,SE,136,1.0,4.0,40,0.00,,---,0.00,969.00,VWS V14.00,2013-04-29 18:09:00,
2013-04-29 13:14:00,69.5,44.2,29.69,SSE,155,0.0,4.0,40,0.00,,---,0.00,970.00,VWS V14.00,2013-04-29 18:14:00,
2013-04-29 13:19:00,69.7,44.3,29.69,South,175,0.0,4.0,40,0.00,,---,0.00,972.00,VWS V14.00,2013-04-29 18:19:00,
2013-04-29 13:24:00,70.1,44.0,29.69,NE,42,4.0,10.0,39,0.00,,---,0.00,970.00,VWS V14.00,2013-04-29 18:24:00,
2013-04-29 13:29:00,69.9,43.8,29.68,ENE,74,2.0,4.0,39,0.00,,---,0.00,972.00,VWS V14.00,2013-04-29 18:29:00,
2013-04-29 13:30:00,67.4,44.2,29.72,East,92,2.0,4.0,43,0.00,,---,0.00,954.00,VWS V14.00,2013-04-29 18:30:00,
2013-04-29 13:35:00,70.2,45.4,29.68,SSW,192,1.0,4.0,41,0.00,,---,0.00,972.00,VWS V14.00,2013-04-29 18:35:00,
2013-04-29 13:40:00,70.8,44.0,29.68,NE,51,2.0,6.0,38,0.00,,---,0.00,974.00,VWS V14.00,2013-04-29 18:40:00,
2013-04-29 13:45:00,70.8,45.3,29.68,NNE,18,8.0,8.0,40,0.00,,---,0.00,965.00,VWS V14.00,2013-04-29 18:45:00,
2013-04-29 13:50:00,70.3,44.2,29.68,NE,35,0.0,9.0,39,0.00,,---,0.00,954.00,VWS V14.00,2013-04-29 18:50:00,
2013-04-29 13:55:00,70.4,44.3,29.68,NNE,22,0.0,9.0,39,0.00,,---,0.00,951.00,VWS V14.00,2013-04-29 18:55:00,
2013-04-29 14:00:00,70.6,44.5,29.68,ENE,59,1.0,6.0,39,0.00,,---,0.00,942.00,VWS V14.00,2013-04-29 19:00:00,
2013-04-29 14:05:00,71.0,43.4,29.67,ENE,59,3.0,6.0,37,0.00,,---,0.00,939.00,VWS V14.00,2013-04-29 19:05:00,
2013-04-29 14:10:00,70.9,44.7,29.67,ENE,63,3.0,6.0,39,0.00,,---,0.00,935.00,VWS V14.00,2013-04-29 19:10:00,
2013-04-29 14:15:00,71.3,43.7,29.66,North,5,9.0,10.0,37,0.00,,---,0.00,925.00,VWS V14.00,2013-04-29 19:15:00,
2013-04-29 14:20:00,71.2,44.3,29.66,NNE,28,0.0,12.0,38,0.00,,---,0.00,918.00,VWS V14.00,2013-04-29 19:20:00,
2013-04-29 14:26:00,71.5,45.9,29.66,ENE,78,0.0,12.0,40,0.00,,---,0.00,907.00,VWS V14.00,2013-04-29 19:26:00,
2013-04-29 14:30:00,69.9,44.5,29.69,NE,42,2.0,10.0,40,0.00,,---,0.00,967.00,VWS V14.00,2013-04-29 19:30:00,
2013-04-29 14:31:00,72.1,45.8,29.66,SE,130,1.0,2.0,39,0.00,,---,0.00,905.00,VWS V14.00,2013-04-29 19:31:00,
2013-04-29 14:36:00,72.2,45.2,29.65,East,92,1.0,10.0,38,0.00,,---,0.00,902.00,VWS V14.00,2013-04-29 19:36:00,
2013-04-29 14:41:00,72.1,45.1,29.65,NNE,17,4.0,10.0,38,0.00,,---,0.00,895.00,VWS V14.00,2013-04-29 19:41:00,
2013-04-29 14:46:00,72.0,47.0,29.65,ESE,122,0.0,10.0,41,0.00,,---,0.00,886.00,VWS V14.00,2013-04-29 19:46:00,
2013-04-29 14:51:00,72.5,46.2,29.65,SE,146,0.0,10.0,39,0.00,,---,0.00,882.00,VWS V14.00,2013-04-29 19:51:00,
2013-04-29 15:00:00,70.5,44.4,29.68,North,360,6.0,10.0,39,0.00,,---,0.00,946.00,VWS V14.00,2013-04-29 20:00:00,
2013-04-29 15:12:00,74.2,47.0,29.63,SSE,154,1.0,7.0,38,0.00,,---,0.00,846.00,VWS V14.00,2013-04-29 20:12:00,
2013-04-29 15:17:00,73.8,46.6,29.63,SE,140,0.0,9.0,38,0.00,,---,0.00,840.00,VWS V14.00,2013-04-29 20:17:00,
2013-04-29 15:23:00,73.7,48.6,29.63,SSE,161,0.0,9.0,41,0.00,,---,0.00,823.00,VWS V14.00,2013-04-29 20:23:00,
2013-04-29 15:28:00,73.5,48.4,29.63,North,5,3.0,6.0,41,0.00,,---,0.00,812.00,VWS V14.00,2013-04-29 20:28:00,
2013-04-29 15:30:00,71.6,45.4,29.66,ESE,119,0.0,12.0,39,0.00,,---,0.00,886.00,VWS V14.00,2013-04-29 20:30:00,
2013-04-29 15:33:00,73.4,48.3,29.62,NNE,31,3.0,6.0,41,0.00,,---,0.00,800.00,VWS V14.00,2013-04-29 20:33:00,
2013-04-29 15:38:00,73.5,49.0,29.62,SE,140,0.0,6.0,42,0.00,,---,0.00,795.00,VWS V14.00,2013-04-29 20:38:00,
2013-04-29 15:43:00,73.7,48.6,29.62,South,184,3.0,6.0,41,0.00,,---,0.00,780.00,VWS V14.00,2013-04-29 20:43:00,
2013-04-29 15:49:00,73.5,50.3,29.61,SSE,165,2.0,7.0,44,0.00,,---,0.00,381.00,VWS V14.00,2013-04-29 20:49:00,
2013-04-29 15:54:00,73.4,49.6,29.62,NE,51,0.0,7.0,43,0.00,,---,0.00,404.00,VWS V14.00,2013-04-29 20:54:00,
2013-04-29 15:59:00,73.3,48.2,29.62,SSE,165,0.0,3.0,41,0.00,,---,0.00,508.00,VWS V14.00,2013-04-29 20:59:00,
2013-04-29 16:00:00,73.2,47.5,29.65,SSW,200,2.0,10.0,40,0.00,,---,0.00,870.00,VWS V14.00,2013-04-29 21:00:00,
2013-04-29 16:04:00,73.4,48.3,29.61,SSE,166,1.0,4.0,41,0.00,,---,0.00,738.00,VWS V14.00,2013-04-29 21:04:00,
2013-04-29 16:10:00,73.5,49.0,29.61,ESE,115,0.0,4.0,42,0.00,,---,0.00,642.00,VWS V14.00,2013-04-29 21:10:00,
2013-04-29 16:15:00,73.5,48.4,29.61,South,181,1.0,5.0,41,0.00,,---,0.00,158.00,VWS V14.00,2013-04-29 21:15:00,
2013-04-29 16:20:00,73.2,49.4,29.61,SE,134,0.0,5.0,43,0.00,,---,0.00,128.00,VWS V14.00,2013-04-29 21:20:00,
2013-04-29 16:25:00,73.0,49.8,29.61,South,171,0.0,6.0,44,0.00,,---,0.00,220.00,VWS V14.00,2013-04-29 21:25:00,
2013-04-29 16:30:00,73.1,49.3,29.61,NNE,26,10.0,10.0,43,0.00,,---,0.00,171.00,VWS V14.00,2013-04-29 21:30:00,
2013-04-29 16:35:00,73.1,49.9,29.60,East,79,0.0,10.0,44,0.00,,---,0.00,209.00,VWS V14.00,2013-04-29 21:35:00,
2013-04-29 16:40:00,73.0,50.4,29.60,South,173,0.0,10.0,45,0.00,,---,0.00,125.00,VWS V14.00,2013-04-29 21:40:00,
2013-04-29 16:45:00,72.8,49.0,29.60,SSE,159,1.0,10.0,43,0.00,,---,0.00,128.00,VWS V14.00,2013-04-29 21:45:00,
2013-04-29 16:50:00,72.5,49.4,29.60,SSW,203,0.0,10.0,44,0.00,,---,0.00,155.00,VWS V14.00,2013-04-29 21:50:00,
2013-04-29 16:55:00,72.4,49.3,29.60,South,183,2.0,10.0,44,0.00,,---,0.00,155.00,VWS V14.00,2013-04-29 21:55:00,
2013-04-29 17:00:00,72.4,49.3,29.60,ESE,121,3.0,6.0,44,0.00,,---,0.00,192.00,VWS V14.00,2013-04-29 22:00:00,
2013-04-29 17:05:00,72.4,49.9,29.60,SE,127,0.0,6.0,45,0.00,,---,0.00,195.00,VWS V14.00,2013-04-29 22:05:00,
2013-04-29 17:11:00,72.6,49.5,29.59,SE,146,0.0,6.0,44,0.00,,---,0.00,192.00,VWS V14.00,2013-04-29 22:11:00,
2013-04-29 17:16:00,72.7,49.5,29.59,SE,146,0.0,6.0,44,0.00,,---,0.00,202.00,VWS V14.00,2013-04-29 22:16:00,
2013-04-29 17:21:00,72.9,49.7,29.58,SW,233,2.0,6.0,44,0.00,,---,0.00,200.00,VWS V14.00,2013-04-29 22:21:00,
2013-04-29 17:26:00,73.0,50.4,29.59,SSE,148,1.0,6.0,45,0.00,,---,0.00,132.00,VWS V14.00,2013-04-29 22:26:00,
2013-04-29 17:30:00,73.0,50.4,29.59,SSW,192,2.0,6.0,45,0.00,,---,0.00,127.00,VWS V14.00,2013-04-29 22:30:00,
2013-04-29 17:31:00,72.9,50.3,29.59,SSE,165,0.0,2.0,45,0.00,,---,0.00,207.00,VWS V14.00,2013-04-29 22:31:00,
2013-04-29 17:36:00,73.0,50.4,29.59,SSW,204,3.0,4.0,45,0.00,,---,0.00,207.00,VWS V14.00,2013-04-29 22:36:00,
2013-04-29 17:41:00,73.1,51.1,29.59,SSE,168,0.0,5.0,46,0.00,,---,0.00,223.00,VWS V14.00,2013-04-29 22:41:00,
2013-04-29 17:46:00,73.2,50.6,29.58,South,171,2.0,10.0,45,0.00,,---,0.00,127.00,VWS V14.00,2013-04-29 22:46:00,
2013-04-29 17:51:00,73.3,51.3,29.58,South,174,1.0,10.0,46,0.00,,---,0.00,134.00,VWS V14.00,2013-04-29 22:51:00,
2013-04-29 17:56:00,73.3,51.9,29.58,South,178,0.0,10.0,47,0.00,,---,0.00,84.00,VWS V14.00,2013-04-29 22:56:00,
2013-04-29 18:00:00,72.4,49.3,29.60,SSE,150,0.0,10.0,44,0.00,,---,0.00,169.00,VWS V14.00,2013-04-29 23:00:00,
2013-04-29 18:01:00,73.2,51.2,29.58,SE,144,1.0,6.0,46,0.00,,---,0.00,100.00,VWS V14.00,2013-04-29 23:01:00,
2013-04-29 18:07:00,73.0,51.6,29.58,South,173,0.0,7.0,47,0.00,,---,0.00,109.00,VWS V14.00,2013-04-29 23:07:00,
2013-04-29 18:12:00,72.9,52.1,29.58,ENE,74,1.0,7.0,48,0.00,,---,0.00,93.00,VWS V14.00,2013-04-29 23:12:00,
2013-04-29 18:17:00,72.8,52.5,29.57,SSW,202,0.0,7.0,49,0.00,,---,0.00,70.00,VWS V14.00,2013-04-29 23:17:00,
2013-04-29 18:22:00,72.6,52.4,29.57,ESE,123,1.0,7.0,49,0.00,,---,0.00,62.00,VWS V14.00,2013-04-29 23:22:00,
2013-04-29 18:27:00,72.3,52.6,29.56,South,185,0.0,7.0,50,0.00,,---,0.00,67.00,VWS V14.00,2013-04-29 23:27:00,
2013-04-29 18:30:00,73.0,50.4,29.59,SSW,192,2.0,6.0,45,0.00,,---,0.00,127.00,VWS V14.00,2013-04-29 23:30:00,
2013-04-29 18:32:00,72.1,52.5,29.57,South,185,0.0,1.0,50,0.00,,---,0.00,65.00,VWS V14.00,2013-04-29 23:32:00,
2013-04-29 18:37:00,71.8,53.2,29.56,South,184,0.0,2.0,52,0.00,,---,0.00,69.00,VWS V14.00,2013-04-29 23:37:00,
2013-04-29 18:42:00,71.6,52.5,29.56,SSE,163,0.0,2.0,51,0.00,,---,0.00,70.00,VWS V14.00,2013-04-29 23:42:00,
2013-04-29 18:47:00,71.5,53.0,29.56,SSE,165,0.0,3.0,52,0.00,,---,0.00,63.00,VWS V14.00,2013-04-29 23:47:00,
2013-04-29 18:52:00,71.3,52.8,29.57,SSE,148,0.0,3.0,52,0.00,,---,0.00,60.00,VWS V14.00,2013-04-29 23:52:00,
2013-04-29 18:57:00,71.2,52.7,29.56,SSE,151,0.0,1.0,52,0.00,,---,0.00,53.00,VWS V14.00,2013-04-29 23:57:00,
2013-04-29 19:00:00,73.3,51.3,29.58,South,178,0.0,10.0,46,0.00,,---,0.00,84.00,VWS V14.00,2013-04-30 00:00:00,
2013-04-29 19:03:00,71.0,53.0,29.56,South,178,0.0,2.0,53,0.00,,---,0.00,58.00,VWS V14.00,2013-04-30 00:03:00,
2013-04-29 19:08:00,70.8,52.8,29.56,South,172,0.0,2.0,53,0.00,,---,0.00,58.00,VWS V14.00,2013-04-30 00:08:00,
2013-04-29 19:13:00,70.7,52.8,29.56,South,172,0.0,2.0,53,0.00,,---,0.00,53.00,VWS V14.00,2013-04-30 00:13:00,
2013-04-29 19:18:00,70.7,52.8,29.56,South,172,0.0,2.0,53,0.00,,---,0.00,51.00,VWS V14.00,2013-04-30 00:18:00,
2013-04-29 19:23:00,70.6,53.2,29.56,South,180,0.0,3.0,54,0.00,,---,0.00,47.00,VWS V14.00,2013-04-30 00:23:00,
2013-04-29 19:28:00,70.6,53.2,29.56,South,180,0.0,0.0,54,0.00,,---,0.00,44.00,VWS V14.00,2013-04-30 00:28:00,
2013-04-29 19:30:00,72.3,52.6,29.56,South,185,0.0,7.0,50,0.00,,---,0.00,69.00,VWS V14.00,2013-04-30 00:30:00,
2013-04-29 19:33:00,70.5,53.1,29.55,South,181,0.0,0.0,54,0.00,,---,0.00,39.00,VWS V14.00,2013-04-30 00:33:00,
2013-04-29 19:38:00,70.3,52.9,29.55,South,181,0.0,1.0,54,0.00,,---,0.00,28.00,VWS V14.00,2013-04-30 00:38:00,
2013-04-29 19:43:00,70.0,53.1,29.55,South,181,0.0,1.0,55,0.00,,---,0.00,19.00,VWS V14.00,2013-04-30 00:43:00,
2013-04-29 19:48:00,69.7,53.3,29.55,South,181,0.0,1.0,56,0.00,,---,0.00,16.00,VWS V14.00,2013-04-30 00:48:00,
2013-04-29 19:53:00,69.3,53.0,29.55,South,181,0.0,1.0,56,0.00,,---,0.00,14.00,VWS V14.00,2013-04-30 00:53:00,
2013-04-29 19:59:00,68.9,53.1,29.55,South,181,0.0,0.0,57,0.00,,---,0.00,12.00,VWS V14.00,2013-04-30 00:59:00,
2013-04-29 20:00:00,71.2,52.7,29.56,SSE,151,1.0,3.0,52,0.00,,---,0.00,53.00,VWS V14.00,2013-04-30 01:00:00,
2013-04-29 20:04:00,68.4,53.1,29.56,South,181,0.0,0.0,58,0.00,,---,0.00,9.00,VWS V14.00,2013-04-30 01:04:00,
2013-04-29 20:09:00,68.0,53.2,29.56,South,181,0.0,0.0,59,0.00,,---,0.00,5.00,VWS V14.00,2013-04-30 01:09:00,
2013-04-29 20:14:00,67.5,53.1,29.55,South,181,0.0,0.0,60,0.00,,---,0.00,0.00,VWS V14.00,2013-04-30 01:14:00,
2013-04-29 20:19:00,66.9,53.0,29.55,South,181,0.0,0.0,61,0.00,,---,0.00,0.00,VWS V14.00,2013-04-30 01:19:00,
2013-04-29 20:24:00,66.4,52.6,29.55,South,181,0.0,0.0,61,0.00,,---,0.00,0.00,VWS V14.00,2013-04-30 01:24:00,
2013-04-29 20:29:00,65.8,52.4,29.55,South,181,0.0,0.0,62,0.00,,---,0.00,0.00,VWS V14.00,2013-04-30 01:29:00,
2013-04-29 20:30:00,70.6,53.2,29.56,South,180,0.0,3.0,54,0.00,,---,0.00,44.00,VWS V14.00,2013-04-30 01:30:00,
2013-04-29 20:34:00,65.2,52.7,29.55,South,181,0.0,0.0,64,0.00,,---,0.00,0.00,VWS V14.00,2013-04-30 01:34:00,
2013-04-29 20:39:00,64.5,52.5,29.55,South,181,0.0,0.0,65,0.00,,---,0.00,0.00,VWS V14.00,2013-04-30 01:39:00,
2013-04-29 20:44:00,63.9,52.3,29.56,South,181,0.0,0.0,66,0.00,,---,0.00,0.00,VWS V14.00,2013-04-30 01:44:00,
2013-04-29 20:50:00,63.3,52.6,29.56,South,181,0.0,0.0,68,0.00,,---,0.00,0.00,VWS V14.00,2013-04-30 01:50:00,
2013-04-29 20:55:00,62.8,52.1,29.56,South,181,0.0,0.0,68,0.00,,---,0.00,0.00,VWS V14.00,2013-04-30 01:55:00,
2013-04-29 21:00:00,62.4,52.5,29.56,South,181,0.0,0.0,70,0.00,,---,0.00,0.00,VWS V14.00,2013-04-30 02:00:00,
2013-04-29 21:05:00,62.1,52.2,29.56,South,181,0.0,0.0,70,0.00,,---,0.00,0.00,VWS V14.00,2013-04-30 02:05:00,
2013-04-29 21:10:00,61.9,52.8,29.56,South,181,0.0,0.0,72,0.00,,---,0.00,0.00,VWS V14.00,2013-04-30 02:10:00,
2013-04-29 21:15:00,61.7,52.2,29.56,South,181,0.0,0.0,71,0.00,,---,0.00,0.00,VWS V14.00,2013-04-30 02:15:00,
2013-04-29 21:20:00,61.6,52.5,29.56,South,181,0.0,0.0,72,0.00,,---,0.00,0.00,VWS V14.00,2013-04-30 02:20:00,
2013-04-29 21:25:00,61.6,52.9,29.55,South,181,0.0,0.0,73,0.00,,---,0.00,0.00,VWS V14.00,2013-04-30 02:25:00,
2013-04-29 21:30:00,61.7,53.3,29.56,South,181,0.0,0.0,74,0.00,,---,0.00,0.00,VWS V14.00,2013-04-30 02:30:00,
2013-04-29 21:35:00,61.9,53.9,29.55,South,181,0.0,0.0,75,0.00,,---,0.00,0.00,VWS V14.00,2013-04-30 02:35:00,
2013-04-29 21:40:00,62.3,54.7,29.55,South,181,0.0,0.0,76,0.00,,---,0.00,0.00,VWS V14.00,2013-04-30 02:40:00,
2013-04-29 21:45:00,62.7,55.8,29.55,South,171,0.0,1.0,78,0.00,,---,0.00,0.00,VWS V14.00,2013-04-30 02:45:00,
2013-04-29 21:50:00,63.0,56.0,29.55,South,171,0.0,1.0,78,0.00,,---,0.00,0.00,VWS V14.00,2013-04-30 02:50:00,
2013-04-29 21:55:00,63.2,55.9,29.55,South,171,0.0,1.0,77,0.00,,---,0.00,0.00,VWS V14.00,2013-04-30 02:55:00,
2013-04-29 22:00:00,63.3,56.3,29.55,South,171,0.0,0.0,78,0.00,,---,0.00,0.00,VWS V14.00,2013-04-30 03:00:00,
2013-04-29 22:06:00,63.3,56.3,29.54,South,171,0.0,0.0,78,0.00,,---,0.00,0.00,VWS V14.00,2013-04-30 03:06:00,
2013-04-29 22:11:00,63.1,56.1,29.55,South,171,0.0,0.0,78,0.00,,---,0.00,0.00,VWS V14.00,2013-04-30 03:11:00,
2013-04-29 22:16:00,63.0,56.0,29.54,South,171,0.0,0.0,78,0.00,,---,0.00,0.00,VWS V14.00,2013-04-30 03:16:00,
2013-04-29 22:21:00,63.0,56.0,29.54,SE,124,0.0,2.0,78,0.00,,---,0.00,0.00,VWS V14.00,2013-04-30 03:21:00,
2013-04-29 22:26:00,62.9,55.9,29.54,SE,124,0.0,2.0,78,0.00,,---,0.00,0.00,VWS V14.00,2013-04-30 03:26:00,
2013-04-29 22:30:00,61.6,53.2,29.56,South,181,0.0,0.0,74,0.00,,---,0.00,0.00,VWS V14.00,2013-04-30 03:30:00,
2013-04-29 22:31:00,62.6,56.0,29.54,SE,124,0.0,0.0,79,0.00,,---,0.00,0.00,VWS V14.00,2013-04-30 03:31:00,
2013-04-29 22:36:00,62.4,55.8,29.54,SE,124,0.0,0.0,79,0.00,,---,0.00,0.00,VWS V14.00,2013-04-30 03:36:00,
2013-04-29 22:41:00,62.1,55.9,29.54,SE,124,0.0,0.0,80,0.00,,---,0.00,0.00,VWS V14.00,2013-04-30 03:41:00,
2013-04-29 22:46:00,61.8,55.9,29.54,SE,124,0.0,0.0,81,0.00,,---,0.00,0.00,VWS V14.00,2013-04-30 03:46:00,
2013-04-29 22:51:00,61.6,55.7,29.54,SE,124,0.0,0.0,81,0.00,,---,0.00,0.00,VWS V14.00,2013-04-30 03:51:00,
2013-04-29 22:56:00,61.4,55.9,29.53,SE,124,0.0,0.0,82,0.00,,---,0.00,0.00,VWS V14.00,2013-04-30 03:56:00,
2013-04-29 23:00:00,63.2,55.9,29.55,South,171,0.0,1.0,77,0.00,,---,0.00,0.00,VWS V14.00,2013-04-30 04:00:00,
2013-04-29 23:01:00,61.3,55.8,29.53,SE,124,0.0,0.0,82,0.00,,---,0.00,0.00,VWS V14.00,2013-04-30 04:01:00,
2013-04-29 23:02:00,61.3,56.1,29.53,SE,124,0.0,0.0,83,0.00,,---,0.00,0.00,VWS V14.00,2013-04-30 04:02:00,
2013-04-29 23:07:00,61.3,56.1,29.53,SE,135,0.0,3.0,83,0.00,,---,0.00,0.00,VWS V14.00,2013-04-30 04:07:00,
2013-04-29 23:13:00,61.3,56.1,29.52,SE,135,0.0,3.0,83,0.00,,---,0.00,0.00,VWS V14.00,2013-04-30 04:13:00,
2013-04-29 23:18:00,61.3,56.1,29.52,SE,135,0.0,3.0,83,0.00,,---,0.00,0.00,VWS V14.00,2013-04-30 04:18:00,
2013-04-29 23:23:00,61.3,56.1,29.52,SE,135,0.0,3.0,83,0.00,,---,0.00,0.00,VWS V14.00,2013-04-30 04:23:00,
2013-04-29 23:28:00,61.3,56.1,29.52,SE,135,0.0,0.0,83,0.00,,---,0.00,0.00,VWS V14.00,2013-04-30 04:28:00,
2013-04-29 23:30:00,62.8,56.2,29.54,SE,124,0.0,2.0,79,0.00,,---,0.00,0.00,VWS V14.00,2013-04-30 04:30:00,
2013-04-29 23:33:00,61.4,56.5,29.52,SE,135,0.0,1.0,84,0.00,,---,0.00,0.00,VWS V14.00,2013-04-30 04:33:00,
2013-04-29 23:38:00,61.4,56.5,29.52,SE,135,0.0,1.0,84,0.00,,---,0.00,0.00,VWS V14.00,2013-04-30 04:38:00,
2013-04-29 23:43:00,61.5,56.3,29.52,SE,135,0.0,1.0,83,0.00,,---,0.00,0.00,VWS V14.00,2013-04-30 04:43:00,
2013-04-29 23:48:00,61.6,56.4,29.51,SE,135,0.0,1.0,83,0.00,,---,0.00,0.00,VWS V14.00,2013-04-30 04:48:00,
2013-04-29 23:53:00,61.7,56.5,29.51,SSE,147,0.0,3.0,83,0.00,,---,0.00,0.00,VWS V14.00,2013-04-30 04:53:00,
2013-04-29 23:58:00,61.8,56.2,29.51,SSE,147,0.0,0.0,82,0.00,,---,0.00,0.00,VWS V14.00,2013-04-30 04:58:00,